Regional Weather Roundup
Issued by NWS Northern Indiana

Home | Current Version | Previous Version | Text Only | Print | Product List | Glossary Off
Versions: 1 2 3 4 5 6 7 8 9 10 11 12 13 14 15 16 17 18 19 20 21 22 23 24 25 26 27 28 29 30 31 32 33 34 35 36 37 38 39 40 41 42 43 44 45 46 47 48 49 50

000
ASUS43 KIWX 300900
RWRIWX

KIWX WEATHER ROUNDUP
NATIONAL WEATHER SERVICE NORTHERN INDIANA
500 AM EDT SUN AUG 30 2015

NOTE: "FAIR" INDICATES FEW OR NO CLOUDS BELOW 12,000 FEET WITH NO
SIGNIFICANT WEATHER AND/OR OBSTRUCTIONS TO VISIBILITY.

* THESE STATIONS ARE NOT UNDER NWS QUALITY CONTROL. THEY ALSO MAY NOT
  REPORT WEATHER SUCH AS PRECIPITATION OR FOG.

INZ001>027-301000-
NORTHERN INDIANA

CITY           SKY/WX    TMP DP  RH WIND       PRES   REMARKS
SOUTH BEND     CLOUDY    67  66  97 SW5       30.02S FOG
GOSHEN         CLOUDY    66  63  90 CALM      30.02S
ANGOLA*        MOCLDY    66  57  72 CALM      30.03S
FORT WAYNE     CLOUDY    67  66  97 S5        30.03F
PERU/GRISSOM   CLEAR     67  66  96 SW2       30.02S

$$
INZ028>050-301000-
CENTRAL INDIANA

CITY           SKY/WX    TMP DP  RH WIND       PRES   REMARKS
LAFAYETTE      FOG       63  63 100 CALM      30.02R VSB 1/4
KOKOMO*        PTCLDY    64  61  88 CALM      30.03S
MUNCIE*        MOCLDY    69  66  90 SW3       30.04S
INDIANAPOLIS   MOCLDY    70  66  87 W3        30.03R

$$
MIZ043>046-050>051-056>058-064>065-071>073-077>080-301000-
SOUTHWEST LOWER MICHIGAN

CITY           SKY/WX    TMP DP  RH WIND       PRES   REMARKS
BATTLE CREEK   CLOUDY    67  64  90 SW3       30.03R
BENTON HARBOR  CLOUDY    68  66  93 W3        30.01S FOG
COLDWATER*     CLOUDY    67  67  97 S3        30.03R
HILLSDALE*     CLOUDY    66  66 100 S5        30.04S
HOLLAND        CLOUDY    68  65  90 NE3       30.01F FOG
GRAND RAPIDS   CLOUDY    66  65  96 CALM      30.02S FOG
KALAMAZOO      CLOUDY    67  65  93 S3        30.02S FOG
STURGIS*       MOCLDY    63  63 100 CALM      30.03R FOG
THREE RIVERS*  CLOUDY    65  65 100 CALM      30.03R FOG

$$
OHZ001>008-015>018-024>025-301000-
NORTHWEST OHIO

CITY           SKY/WX    TMP DP  RH WIND       PRES   REMARKS
DEFIANCE       CLOUDY    69  66  90 SE3       30.03F FOG
FINDLAY        CLOUDY    69  67  93 S8        30.04S FOG
TOLEDO EXPRESS CLOUDY    67  66  97 CALM      30.03S FOG
TOLEDO METCALF LGT RAIN  69  65  86 E3        30.05R
LIMA           MOCLDY    67  65  93 SE7       30.05S

$$
AND FOR LAKE MICHIGAN COASTAL AND OPEN LAKE BUOY OBSERVATIONS

STATION/POSITION TEMP    WIND        PRES    VSBY  WAVE
                 AIR SEA DIR/SP/G                  HT/PER
                 (F)     (DEG/KT/KT) (MB)    (MI)  (FT/S)
MICHIGAN CITY     67     310/  3/  4   N/A
BURNS HARBOR      68     340/  3/  3 1016.9S
SAINT JOSEPH      69     260/  5/  6 1016.9S
SOUTH LAKE BUOY   67 68   20/  4/  4 1015.7F         1
4 MI NW BRIDGMAN  69 70  350/  4/  6   N/A           1
MICHIGAN CITY     68 71  340/  4/  6   N/A           1/ 2

$$
&&


USA.gov is the U.S. government's official web portal to all federal, state and local government web resources and services.